Location: Arborea
(39.7744°N, 8.5819°E)
Time: 03:43:30
(UTC+00:00)

USA 229 - Pass Details

Date: 06 June 2022
Orbit: 938 x 1274 km, 63.4° (Epoch: 24 May)

Event Time Altitude Azimuth Distance (km) Brightness Sun altitude
Rises 19:47:21 0° 330° (NNW) 3,941 8.2 -9.6°
Reaches altitude 10° 19:50:30 10° 343° (NNW) 3,037 7.1 -10.1°
Maximum altitude 19:56:31 27° 39° (NE) 2,135 5.3 -10.9°
Drops below altitude 10° 20:02:50 10° 94° (E) 3,206 5.7 -11.8°
Enters shadow 20:03:49 - 98° (E) 3,481 5.9 -12.0°
